User: anonymous   Login
Location: Unspecified
(0.0000°N, 0.0000°E)
Time: 11:01:26
(UTC+00:00)
Language:

XW-2A - Orbit

View from above orbital plane
View from above orbital plane
View from above satellite
View from above satellite

Ground track
Ground track

The orbit data is extracted from the following two-line orbital elements,

1 40903U 15049E   19349.11930806  .00001515  00000-0  36972-4 0  9992
2 40903  97.3154  32.7191 0012504 208.8959 175.4447 15.42419401237907
Epoch (UTC): 15 December 2019 02:51:48
Eccentricity: 0.0012504
inclination: 97.3154°
perigee height: 430 km
apogee height: 447 km
right ascension of ascending node: 32.7191°
argument of perigee: 208.8959°
revolutions per day: 15.42419401
mean anomaly at epoch: 175.4447°
orbit number at epoch: 23790

The dashed part of the orbit path shows where the satellite is in the earth's shadow,  

DLR